Location: Deurze
(52.9838°N, 6.6090°E)
Time: 18:38:37
(UTC+00:00)

COSMOS 2406 - Pass Details

Date: 11 March 2026
Orbit: 844 x 860 km, 71.0° (Epoch: 20 April)

Event Time Altitude Azimuth Distance (km) Brightness Sun altitude
Rises 19:20:31 0° 325° (NW) 3,449 7.2 -17.2°
Reaches altitude 10° 19:23:04 10° 320° (NW) 2,509 6.5 -17.5°
Maximum altitude 19:28:31 45° 249° (WSW) 1,163 4.3 -18.3°
Drops below altitude 10° 19:33:55 10° 179° (S) 2,490 5.4 -19.1°
Enters shadow 19:35:21 - 175° (S) 3,007 5.8 -19.3°
